Weather in Mumbai

India     19°04′57″N   72°53′27″E
temp.,
°C
wind,
m/s
gust,
m/s
humid.,
%
clouds,
%
prec.,
mm/h
press.,
hPa
HPBL,
m
13 april, tue
tue1323:30+29wnw226256 0.0 101252
02:30+28wsw227122 0.0 1011102
05:30+28ene116696 0.0 101133
08:30+30ene225491 0.0 1012136
11:30+35nnw462979 0.0 1011910
14:30+34wnw87360 0.0 1008954
17:30+33wnw710377 0.0 1006399
20:30+29ssw336763 0.0 1010123
14 april, wed
wed1423:30+28wnw22655 0.0 101037
02:30+28nw226486 0.0 100964
05:30+28ne116286 0.0 100917
08:30+30nnw115623 0.0 1012197
11:30+34wnw22365 0.0 1011650
14:30+35wnw75360 0.0 1007855
17:30+34nw810330 0.0 1006497
20:30+31nw57470 0.0 1008121
15 april, thu
thu1523:30+30ne11530 0.0 101024
02:30+29n11620 0.0 100821
05:30+28ene01680 0.0 101021
08:30+29se00600 0.0 1013249
11:30+33wnw43410 0.0 1012879
14:30+32wnw86440 0.0 1009600
17:30+31wnw810450 0.0 1008456
20:30+29nw47530 0.0 1010290
16 april, fri
fri1623:30+28nw34580 0.0 1011176
02:30+27nw34600 0.0 1009341
05:30+27nnw34630 0.0 1010384
08:30+28n23550 0.0 1012751
11:30+31w53420 0.0 1011917
14:30+31w64460 0.0 1009625
17:30+30w66510 0.0 1008536
20:30+28w34630 0.0 1010363
17 april, sat
sat1723:30+27wnw23640 0.0 1011439
02:30+27nw23670 0.0 1010472
05:30+26nne23700 0.0 1010462
08:30+28ne22640 0.0 1013579
11:30+31w44490 0.0 1012833
14:30+31w76580 0.0 1010621
17:30+30wnw67630 0.0 1010574
20:30+28w34700 0.0 1011347